Regional Weather Roundup
Issued by NWS

Home | Current Version | Previous Version | Text Only | Print | Product List | Glossary On
Versions: 1 2 3 4 5 6 7 8 9 10 11 12 13 14 15 16 17 18 19 20 21 22 23 24 25 26 27 28 29 30 31 32 33 34 35 36 37 38 39 40 41 42 43 44 45 46 47 48 49 50
000
ASUS44 KMEG 221910
RWRTN
TENNESSEE HOURLY STATE WEATHER ROUNDUP
NATIONAL WEATHER SERVICE MEMPHIS TN
200 PM CDT TUE AUG 22 2017

TNZ002-004-019-021-049-052-054-088>092-222000-
WEST TENNESSEE

CITY           SKY/WX    TMP DP  RH WIND       PRES   REMARKS
MEMPHIS INTL   MOSUNNY   92  75  57 SW10      30.01F HX 103
NWS MEMPHIS      N/A     92 N/A N/A MISG        N/A
JACKSON        SUNNY     93  75  55 SW14G22   29.98F HX 104
DYERSBURG      PTSUNNY   88  76  67 SW14G21   29.98F HX  99
SOMERVILLE     MOSUNNY   91  73  55 SW13G18   30.00F HX 100
COVINGTON      MOSUNNY   91  75  59 S16G24    29.97F HX 102
UNION CITY     MOSUNNY   88  75  66 SW12G18   29.96S HX  97
BOLIVAR        MOSUNNY   91  73  55 S8        30.01F HX 100
PARIS          SUNNY     88  75  66 SW12      29.96F HX  97
HUNTINGDON     SUNNY     91  72  52 SW16      29.95F HX  98
LEXINGTON      SUNNY     91  73  55 SW12      29.99F HX 100
SELMER         PTSUNNY   90  73  58 VRB7G14   30.02F HX  98
SAVANNAH       SUNNY     93  72  49 S9G16     30.01F HX 100
$$

TNZ008-025-027-028-033-062-065-066-222000-
NORTH MIDDLE TENNESSEE

CITY           SKY/WX    TMP DP  RH WIND       PRES   REMARKS
NASHVILLE      CLOUDY    83  74  74 SW8       30.01F
PORTLAND       PTSUNNY   88  72  58 W9G18     29.98F HX  94
CLARKSVILLE    CLOUDY    87  72  60 SW10      29.97F HX  93
SMYRNA         PTSUNNY   90  74  59 NW12G22   30.01F HX  99
COOKEVILLE     MOSUNNY   88  72  58 SW12G18   30.02F HX  94
GALLATIN       MOSUNNY   90  73  58 VRB5      30.01F HX  98
CROSSVILLE     MOSUNNY   85  67  54 SW8       30.10F
$$

TNZ061-075-076-078-094-096-097-222000-
SOUTH MIDDLE TENNESSEE

CITY           SKY/WX    TMP DP  RH WIND       PRES   REMARKS
FAYETTEVILLE   SUNNY     88  68  51 W9G17     30.06F HX  91
TULLAHOMA      SUNNY     90  66  45 SW10      30.07F HX  92
WINCHESTER     MOSUNNY   90  72  55 SW8       30.06F HX  96
MCMINNVILLE    SUNNY     90  72  55 SW12      30.04F HX  96
COLUMBIA       SUNNY     90  75  62 S13G20    30.00F HX 100
SHELBYVILLE    MOSUNNY   90  72  55 S15       30.03F HX  96
$$

TNZ017-018-042-046-047-222000-
NORTHEAST TENNESSEE

CITY           SKY/WX    TMP DP  RH WIND       PRES   REMARKS
TRI CITIES     MOSUNNY   88  66  48 SW10      30.06F HX  90
ELIZABETHTON   MOSUNNY   88  68  51 W9        30.07F HX  91
$$

TNZ012-013-036-069-073-074-222000-
CENTRAL EAST TENNESSEE

CITY           SKY/WX    TMP DP  RH WIND       PRES   REMARKS
KNOXVILLE      MOSUNNY   89  64  43 SW12      30.03F HX  90
OAK RIDGE      MOSUNNY   92  66  42 VRB5      30.04F HX  94
DOWNTOWN KNOXV SUNNY     90  70  51 SW8G17    30.02F HX  95
GATLINBURG     SUNNY     93  63  36 W8        30.03F HX  94
MORRISTOWN     SUNNY     90  64  43 W10       30.04F HX  91
JACKSBORO      MOSUNNY   90  72  55 S9        30.06F HX  96
$$

TNZ083-085-099-222000-
SOUTHEAST TENNESSEE

CITY           SKY/WX    TMP DP  RH WIND       PRES   REMARKS
CHATTANOOGA    MOSUNNY   93  67  42 SW8       30.05F HX  96
DAYTON         PTCLDY    91  73  55 SW12      30.02F HX 100
$$

SKY/WX REPORTED AS FAIR MEANS FEW OR NO CLOUDS BELOW
12 THOUSAND FEET.




USA.gov is the U.S. government's official web portal to all federal, state and local government web resources and services.